Приштина, метеограме

Приштина: време по сату
Субота, 05 Децембра
Време Падавине Температура Осећа се Притисак Влажност Ветар
17:00 0 мм +4.4° +4.3° 668.000 мм.ж.с 81% 1 м/с, ЈИ
18:00 0 мм +3.9° +3.9° 668.000 мм.ж.с 83% 2 м/с, ЈИ
19:00 0 мм +3.4° +3.4° 668.000 мм.ж.с 86% 2 м/с, ЈИ
20:00 0 мм +3.2° +3.2° 668.000 мм.ж.с 87% 2 м/с, ЈИ
21:00 0 мм +3° +3° 668.000 мм.ж.с 87% 2 м/с, ЈИ
22:00 0 мм +2.8° +2.8° 668.000 мм.ж.с 88% 2 м/с, ЈИ
23:00 0 мм +2.5° +2.5° 668.000 мм.ж.с 88% 2 м/с, ЈИ
Недеља, 06 Децембра
Време Падавине Температура Осећа се Притисак Влажност Ветар
00:00 0 мм +2.3° +2.3° 668.000 мм.ж.с 88% 2 м/с, ЈИ
01:00 0 мм +2° +2° 668.000 мм.ж.с 88% 1 м/с, ЈИ
02:00 0 мм +1.8° +1.8° 668.000 мм.ж.с 89% 1 м/с, ЈИ
03:00 0 мм +1.5° +1.5° 668.000 мм.ж.с 89% 1 м/с, ЈИ
04:00 0 мм +1.3° +1.3° 667.000 мм.ж.с 89% 1 м/с, ЈИ
05:00 0 мм +1.2° +1.2° 667.000 мм.ж.с 90% 2 м/с, ЈИ
06:00 0 мм +1° +1.1° 667.000 мм.ж.с 91% 2 м/с, ЈИ
07:00 0 мм +0.9° +0.9° 667.000 мм.ж.с 91% 2 м/с, ЈИ
08:00 0 мм +2.6° +2.5° 667.000 мм.ж.с 85% 2 м/с, ЈИ
09:00 0 мм +4.2° +4.1° 667.000 мм.ж.с 80% 2 м/с, ЈИ
10:00 0 мм +5.9° +5.7° 667.000 мм.ж.с 74% 3 м/с, ЈИ
11:00 0 мм +6.5° +6.3° 667.000 мм.ж.с 72% 3 м/с, ЈИ
12:00 0 мм +7.1° +6.9° 666.000 мм.ж.с 70% 4 м/с, ЈИ
13:00 0 мм +7.7° +7.5° 666.000 мм.ж.с 69% 4 м/с, ЈИ
14:00 0 мм +6.9° +6.8° 666.000 мм.ж.с 73% 4 м/с, ЈИ
15:00 0 мм +6.1° +6° 665.000 мм.ж.с 78% 4 м/с, ЈИ
16:00 0 мм +5.3° +5.3° 665.000 мм.ж.с 83% 3 м/с, ЈИ
17:00 0.01 мм +5.1° +5.1° 665.000 мм.ж.с 85% 3 м/с, ЈИ
18:00 0.01 мм +4.8° +4.9° 665.000 мм.ж.с 87% 4 м/с, ЈИ
19:00 0.01 мм +4.6° +4.7° 665.000 мм.ж.с 89% 4 м/с, ЈИ
20:00 0 мм +4.5° +4.6° 665.000 мм.ж.с 90% 3 м/с, ЈИ
21:00 0 мм +4.4° +4.5° 664.000 мм.ж.с 90% 3 м/с, ЈИ
22:00 0 мм +4.2° +4.4° 664.000 мм.ж.с 91% 3 м/с, ЈИ
23:00 0.02 мм +4.3° +4.4° 664.000 мм.ж.с 91% 3 м/с, ЈИ
Понедељак, 07 Децембра
Време Падавине Температура Осећа се Притисак Влажност Ветар
00:00 0.02 мм +4.3° +4.4° 664.000 мм.ж.с 91% 3 м/с, ЈИ
01:00 0.02 мм +4.4° +4.5° 663.000 мм.ж.с 91% 4 м/с, ЈИ
02:00 0.36 мм +4.3° +4.4° 663.000 мм.ж.с 91% 3 м/с, ЈИ
03:00 0.36 мм +4.3° +4.4° 663.000 мм.ж.с 92% 3 м/с, ЈИ
04:00 0.36 мм +4.3° +4.4° 663.000 мм.ж.с 92% 3 м/с, ЈИ
05:00 0.75 мм +4.2° +4.3° 663.000 мм.ж.с 93% 3 м/с, ЈИ
06:00 0.75 мм +4.1° +4.2° 663.000 мм.ж.с 93% 2 м/с, ЈИ
07:00 0.75 мм +4° +4.1° 663.000 мм.ж.с 94% 2 м/с, ЈИ
08:00 2 мм +3.9° +4.1° 663.000 мм.ж.с 94% 2 м/с, ЈИ
09:00 2 мм +3.9° +4.1° 663.000 мм.ж.с 94% 1 м/с, ЈИ
10:00 2 мм +3.9° +4.1° 663.000 мм.ж.с 94% 1 м/с, Ј
11:00 0.6 мм +4.2° +4.3° 663.000 мм.ж.с 93% 1 м/с, Ј
12:00 0.6 мм +4.4° +4.6° 663.000 мм.ж.с 91% 1 м/с, Ј
13:00 0.6 мм +4.7° +4.8° 663.000 мм.ж.с 89% 1 м/с, Ј
14:00 0.23 мм +4.4° +4.5° 663.000 мм.ж.с 90% 1 м/с, Ј
15:00 0.23 мм +4.1° +4.3° 664.000 мм.ж.с 91% 1 м/с, ЈИ
16:00 0.23 мм +3.9° +4° 664.000 мм.ж.с 92% 1 м/с, ЈИ

Такође

Meteograms hourly weather Мапе времена Преглед времена
Meteograms hourly weather Мапе времена Преглед времена
 
Време у Србији:
О проjекту
© meteoprog.rs 2003-2020.
Meteoprog.ua - погода в Украине 0.0409
sitemap